Fond du Lac, WI

2:09 PM CST on January 20, 2017 (GMT -0600)
Fond du Lac County

Weather History for KFLD - June, 2013

Change the Weather History Date:

Thursday, June 27, 2013

  Actual Average Record
Temperature  
Mean Temperature 75 °F -  
Max Temperature 86 °F 79 °F 93 °F (2005)
Min Temperature 66 °F 60 °F 47 °F (1992)
Cooling Degree Days 10    
Growing Degree Days 25 (Base 50)    
Moisture  
Dew Point 65 °F    
Average Humidity 76    
Maximum Humidity 90    
Minimum Humidity 44    
Precipitation  
Precipitation 0.50 in - - ()
Sea Level Pressure  
Sea Level Pressure 29.73 in    
Wind  
Wind Speed 5 mph (WSW)    
Max Wind Speed 22 mph    
Max Gust Speed 38 mph    
Visibility 8 miles    
Events Rain , Thunderstorm    
Averages and records for this station are not official NWS values.
T = Trace of Precipitation, MM = Missing Value Source: NWS Daily Summary

Daily Weather History Graph

Daily Weather History Graph

Search for Another Location

Airport or City:

Trip Planner

Search our weather history database for the weather conditions in past years. The results will help you decide how hot, cold, wet, or windy it might be!

Date:

Astronomy

Jun. 27, 2013 Rise Set
Actual Time 5:14 AM CDT 8:40 PM CDT
Civil Twilight 4:37 AM CDT 9:16 PM CDT
Nautical Twilight 3:50 AM CDT 10:03 PM CDT
Astronomical Twilight 2:51 AM CDT 11:02 PM CDT
Moon 11:25 PM CDT (6/27) 10:25 AM CDT (6/27)
Length of Visible Light 16h 38m
Length of Day
15h 26m
Waning Gibbous, 76% of the Moon is Illuminated
Jun 27
Waning Gibbous
Jun 29
Last Quarter
Jul 8
New
Jul 15
First Quarter
Jul 22
Full

Hourly Weather History & Observations

Time (CDT) Temp. Heat Index Dew Point Humidity Pressure Visibility Wind Dir Wind Speed Gust Speed Precip Events Conditions
12:53 AM 70.0 °F - 66.0 °F 87% 29.76 in 10.0 mi South 4.6 mph - N/A   Scattered Clouds
1:53 AM 69.1 °F - 64.9 °F 87% 29.76 in 10.0 mi Calm Calm - N/A   Partly Cloudy
2:53 AM 70.0 °F - 66.0 °F 87% 29.76 in 10.0 mi SW 6.9 mph - N/A   Mostly Cloudy
3:53 AM 69.1 °F - 66.0 °F 90% 29.75 in 7.0 mi Calm Calm - N/A   Clear
4:53 AM 68.0 °F - 64.9 °F 90% 29.77 in 6.0 mi SSW 3.5 mph - N/A   Scattered Clouds
5:18 AM 68.0 °F - 64.4 °F 88% 29.77 in 5.0 mi South 3.5 mph - N/A   Mostly Cloudy
5:32 AM 68.0 °F - 64.4 °F 88% 29.78 in 4.0 mi Calm Calm - N/A   Scattered Clouds
5:53 AM 66.9 °F - 64.0 °F 90% 29.76 in 3.0 mi Calm Calm - N/A   Clear
6:26 AM 69.8 °F - 66.2 °F 88% 29.77 in 8.0 mi WSW 6.9 mph - N/A   Mostly Cloudy
6:53 AM 71.1 °F - 68.0 °F 90% 29.76 in 10.0 mi West 5.8 mph - N/A   Overcast
7:19 AM 73.4 °F - 68.0 °F 83% 29.77 in 10.0 mi WNW 10.4 mph - N/A   Scattered Clouds
7:53 AM 73.9 °F - 68.0 °F 82% 29.75 in 10.0 mi NW 8.1 mph - N/A   Scattered Clouds
8:53 AM 77.0 °F - 69.1 °F 76% 29.77 in 10.0 mi WNW 10.4 mph - N/A   Scattered Clouds
9:53 AM 79.0 °F - 69.1 °F 72% 29.76 in 10.0 mi NW 10.4 mph - N/A   Partly Cloudy
10:53 AM 81.0 °F 83.8 °F 68.0 °F 65% 29.76 in 10.0 mi WNW 6.9 mph - N/A   Scattered Clouds
11:53 AM 82.0 °F 83.8 °F 64.9 °F 56% 29.75 in 10.0 mi NNW 10.4 mph - N/A   Partly Cloudy
12:53 PM 79.0 °F - 66.0 °F 64% 29.76 in 10.0 mi WNW 9.2 mph - N/A   Overcast
1:53 PM 78.1 °F - 61.0 °F 56% 29.75 in 10.0 mi WSW 4.6 mph - 0.01 in   Mostly Cloudy
2:53 PM 82.9 °F 84.0 °F 63.0 °F 51% 29.71 in 10.0 mi West 9.2 mph - N/A   Clear
3:53 PM 84.9 °F 85.0 °F 61.0 °F 44% 29.70 in 10.0 mi SW 8.1 mph 17.3 mph N/A   Clear
4:43 PM 78.8 °F - 66.2 °F 65% 29.70 in 10.0 mi SW 9.2 mph - N/A Thunderstorm Partly Cloudy
4:53 PM 75.9 °F - 66.0 °F 71% 29.68 in 7.0 mi SW 10.4 mph - 0.01 in Rain , Thunderstorm Light Thunderstorms and Rain
5:05 PM 73.4 °F - 66.2 °F 78% 29.72 in 1.5 mi West 21.9 mph 38.0 mph 0.08 in Rain , Thunderstorm Heavy Thunderstorms and Rain
5:10 PM 69.8 °F - 62.6 °F 78% 29.73 in 0.5 mi Variable 5.8 mph 38.0 mph 0.15 in Rain , Thunderstorm Heavy Thunderstorms and Rain
5:20 PM 69.8 °F - 62.6 °F 78% 29.71 in 2.0 mi West 3.5 mph - 0.30 in Rain , Thunderstorm Light Rain
5:27 PM 73.4 °F - 64.4 °F 73% 29.70 in 10.0 mi ESE 3.5 mph - 0.39 in Rain , Thunderstorm Light Rain
5:43 PM 73.4 °F - 66.2 °F 78% 29.69 in 10.0 mi Calm Calm - 0.48 in   Scattered Clouds
5:53 PM 75.0 °F - 66.0 °F 73% 29.68 in 10.0 mi South 3.5 mph - 0.48 in   Partly Cloudy
6:51 PM 77.0 °F - 68.0 °F 74% 29.69 in 10.0 mi South 3.5 mph - N/A Thunderstorm Clear
6:53 PM 77.0 °F - 68.0 °F 74% 29.68 in 10.0 mi South 3.5 mph - N/A Thunderstorm Clear
7:06 PM 77.0 °F - 68.0 °F 74% 29.72 in 10.0 mi NNE 8.1 mph - N/A   Clear
7:53 PM 73.9 °F - 62.1 °F 66% 29.70 in 10.0 mi Calm Calm - N/A   Clear
8:53 PM 71.1 °F - 63.0 °F 75% 29.71 in 10.0 mi ESE 4.6 mph - N/A   Scattered Clouds
9:53 PM 70.0 °F - 63.0 °F 78% 29.73 in 10.0 mi ENE 5.8 mph - N/A   Scattered Clouds
10:53 PM 68.0 °F - 63.0 °F 84% 29.73 in 10.0 mi Calm Calm - N/A   Mostly Cloudy
11:53 PM 66.9 °F - 63.0 °F 87% 29.70 in 10.0 mi WSW 5.8 mph - N/A   Mostly Cloudy